When you browse on this site, cookies collect data to enhance your experience and personalize the content and advertising you see.
Visit our Privacy Policy to learn more. By continuing to use the site, you agree to this use of cookies and data.
  • In Spain
  • List of Countries
  • For 7 days
  • Water Temperature
  • Satellite Maps
  • Weather Map
  • Weather Widgets
  • user-avatar
    Login

    Hourly Weather San Luis

    Today, 24 July, Wednesday

    Time Temperature Precipitation Wind Pressure Humidity
    00:00 +4°C° 0 mm 3 mps 706 mmHg 67%
    01:00 +4°C° 0 mm 2 mps 707 mmHg 68%
    02:00 +4°C° 0 mm 2 mps 707 mmHg 69%
    03:00 +4°C° 0 mm 2 mps 707 mmHg 71%
    04:00 +3°C° 0 mm 2 mps 707 mmHg 73%
    05:00 +3°C° 0 mm 2 mps 707 mmHg 75%
    06:00 +3°C° 0 mm 2 mps 707 mmHg 72%
    07:00 +3°C° 0 mm 3 mps 707 mmHg 69%
    08:00 +3°C° 0 mm 3 mps 707 mmHg 66%
    09:00 +5°C° 0 mm 3 mps 707 mmHg 58%
    10:00 +8°C° 0 mm 3 mps 708 mmHg 50%
    11:00 +10°C° 0 mm 3 mps 708 mmHg 42%
    12:00 +11°C° 0 mm 3 mps 707 mmHg 39%
    13:00 +12°C° 0 mm 3 mps 707 mmHg 37%
    14:00 +14°C° 0 mm 2 mps 706 mmHg 34%
    15:00 +13°C° 0 mm 2 mps 706 mmHg 35%
    16:00 +13°C° 0 mm 2 mps 706 mmHg 36%
    17:00 +13°C° 0 mm 2 mps 706 mmHg 36%
    18:00 +12°C° 0 mm 2 mps 705 mmHg 41%
    19:00 +10°C° 0 mm 1 mps 705 mmHg 46%
    20:00 +8°C° 0 mm 1 mps 705 mmHg 50%
    21:00 +7°C° 0 mm 2 mps 705 mmHg 51%
    22:00 +7°C° 0 mm 2 mps 705 mmHg 51%
    23:00 +7°C° 0 mm 2 mps 705 mmHg 52%

    Tomorrow, 25 July, Thursday

    Time Temperature Precipitation Wind Pressure Humidity
    00:00 +5°C° 0 mm 3 mps 705 mmHg 52%
    01:00 +5°C° 0 mm 3 mps 704 mmHg 53%
    02:00 +5°C° 0 mm 3 mps 704 mmHg 53%
    03:00 +4°C° 0 mm 3 mps 704 mmHg 54%
    04:00 +4°C° 0 mm 3 mps 703 mmHg 56%
    05:00 +4°C° 0 mm 3 mps 703 mmHg 57%
    06:00 +4°C° 0 mm 3 mps 703 mmHg 58%
    07:00 +5°C° 0 mm 2 mps 703 mmHg 59%
    08:00 +5°C° 0 mm 2 mps 703 mmHg 61%
    09:00 +7°C° 0 mm 2 mps 703 mmHg 53%
    10:00 +10°C° 0 mm 3 mps 703 mmHg 45%
    11:00 +12°C° 0 mm 3 mps 703 mmHg 37%
    12:00 +13°C° 0 mm 3 mps 703 mmHg 35%
    13:00 +14°C° 0 mm 3 mps 702 mmHg 34%
    14:00 +14°C° 0 mm 3 mps 701 mmHg 32%
    15:00 +15°C° 0 mm 2 mps 701 mmHg 33%
    16:00 +15°C° 0 mm 2 mps 701 mmHg 34%
    17:00 +14°C° 0 mm 2 mps 700 mmHg 35%
    18:00 +13°C° 0 mm 2 mps 700 mmHg 41%
    19:00 +11°C° 0 mm 1 mps 700 mmHg 47%
    20:00 +9°C° 0 mm 1 mps 700 mmHg 53%
    21:00 +8°C° 0 mm 2 mps 701 mmHg 54%
    22:00 +7°C° 0 mm 2 mps 701 mmHg 55%
    23:00 +7°C° 0 mm 2 mps 701 mmHg 56%

    Day after tomorrow, 26 July, Friday

    Time Temperature Precipitation Wind Pressure Humidity
    00:00 +7°C° 0 mm 2 mps 701 mmHg 57%
    01:00 +7°C° 0 mm 3 mps 701 mmHg 57%
    02:00 +7°C° 0 mm 3 mps 701 mmHg 58%
    03:00 +5°C° 0 mm 3 mps 701 mmHg 59%
    04:00 +6°C° 0 mm 2 mps 701 mmHg 59%
    05:00 +6°C° 0 mm 2 mps 701 mmHg 60%
    06:00 +6°C° 0 mm 2 mps 702 mmHg 60%
    07:00 +6°C° 0 mm 2 mps 702 mmHg 59%
    08:00 +7°C° 0 mm 1 mps 703 mmHg 59%
    09:00 +9°C° 0 mm 1 mps 704 mmHg 52%
    10:00 +11°C° 0 mm 1 mps 704 mmHg 44%
    11:00 +14°C° 0 mm 1 mps 705 mmHg 37%
    12:00 +14°C° 0 mm 1 mps 704 mmHg 34%
    13:00 +15°C° 0 mm 1 mps 704 mmHg 32%
    14:00 +16°C° 0 mm 1 mps 704 mmHg 30%
    15:00 +16°C° 0 mm 1 mps 703 mmHg 31%
    16:00 +15°C° 0 mm 2 mps 703 mmHg 33%
    17:00 +15°C° 0 mm 2 mps 703 mmHg 34%
    18:00 +14°C° 0 mm 2 mps 703 mmHg 36%
    19:00 +13°C° 0 mm 2 mps 704 mmHg 38%
    20:00 +12°C° 0 mm 2 mps 704 mmHg 40%
    21:00 +10°C° 0 mm 2 mps 704 mmHg 42%
    22:00 +10°C° 0 mm 3 mps 704 mmHg 44%
    23:00 +9°C° 0 mm 3 mps 704 mmHg 45%

    27 July, Saturday

    Time Temperature Precipitation Wind Pressure Humidity
    00:00 +9°C° 0 mm 3 mps 704 mmHg 46%
    01:00 +8°C° 0 mm 3 mps 704 mmHg 46%
    02:00 +8°C° 0 mm 3 mps 704 mmHg 46%
    03:00 +8°C° 0 mm 3 mps 703 mmHg 47%
    04:00 +7°C° 0 mm 2 mps 703 mmHg 47%
    05:00 +7°C° 0 mm 2 mps 703 mmHg 48%
    06:00 +7°C° 0 mm 2 mps 703 mmHg 49%
    07:00 +7°C° 0 mm 2 mps 703 mmHg 50%
    08:00 +7°C° 0 mm 2 mps 703 mmHg 51%
    09:00 +9°C° 0 mm 3 mps 704 mmHg 46%
    10:00 +12°C° 0 mm 4 mps 704 mmHg 40%
    11:00 +14°C° 0 mm 5 mps 704 mmHg 35%
    12:00 +15°C° 0 mm 5 mps 703 mmHg 35%
    13:00 +15°C° 0 mm 5 mps 703 mmHg 35%
    14:00 +16°C° 0 mm 6 mps 702 mmHg 35%
    15:00 +16°C° 0 mm 5 mps 701 mmHg 36%
    16:00 +15°C° 0 mm 5 mps 701 mmHg 37%
    17:00 +15°C° 0 mm 4 mps 701 mmHg 39%
    18:00 +13°C° 0 mm 4 mps 701 mmHg 42%
    19:00 +12°C° 0 mm 3 mps 701 mmHg 46%
    20:00 +10°C° 0 mm 2 mps 701 mmHg 49%
    21:00 +10°C° 0 mm 2 mps 701 mmHg 50%
    22:00 +10°C° 0 mm 3 mps 700 mmHg 51%
    23:00 +9°C° 0 mm 3 mps 700 mmHg 52%

    28 July, Sunday

    Time Temperature Precipitation Wind Pressure Humidity
    00:00 +9°C° 0 mm 3 mps 700 mmHg 54%
    01:00 +8°C° 0 mm 4 mps 700 mmHg 56%
    02:00 +8°C° 0 mm 4 mps 700 mmHg 57%
    03:00 +7°C° 0 mm 4 mps 699 mmHg 61%
    04:00 +7°C° 0 mm 4 mps 699 mmHg 64%
    05:00 +7°C° 0 mm 4 mps 699 mmHg 67%
    06:00 +7°C° 0 mm 4 mps 699 mmHg 69%
    07:00 +7°C° 0 mm 4 mps 699 mmHg 70%
    08:00 +7°C° 0 mm 5 mps 699 mmHg 71%
    09:00 +9°C° 0 mm 5 mps 700 mmHg 65%
    10:00 +12°C° 0 mm 5 mps 700 mmHg 58%
    11:00 +13°C° 0 mm 5 mps 700 mmHg 51%
    12:00 +14°C° 0 mm 5 mps 700 mmHg 49%
    13:00 +15°C° 0 mm 4 mps 699 mmHg 47%
    14:00 +15°C° 0 mm 4 mps 699 mmHg 45%
    15:00 +15°C° 0 mm 4 mps 699 mmHg 47%
    16:00 +16°C° 0 mm 3 mps 698 mmHg 48%
    17:00 +14°C° 0 mm 3 mps 698 mmHg 50%
    18:00 +14°C° 0 mm 2 mps 698 mmHg 57%
    19:00 +12°C° 0 mm 2 mps 698 mmHg 64%
    20:00 +11°C° 0 mm 1 mps 699 mmHg 71%
    21:00 +10°C° 0 mm 1 mps 699 mmHg 73%
    22:00 +10°C° 0 mm 1 mps 699 mmHg 75%
    23:00 +9°C° 0 mm 1 mps 699 mmHg 77%

    29 July, Monday

    Time Temperature Precipitation Wind Pressure Humidity
    00:00 +9°C° 0 mm 1 mps 699 mmHg 77%
    01:00 +8°C° 0 mm 2 mps 699 mmHg 78%
    02:00 +8°C° 0 mm 2 mps 699 mmHg 78%
    03:00 +8°C° 0 mm 2 mps 699 mmHg 80%
    04:00 +8°C° 0 mm 2 mps 699 mmHg 82%
    05:00 +7°C° 0 mm 2 mps 699 mmHg 83%
    06:00 +7°C° 0 mm 2 mps 699 mmHg 83%
    07:00 +8°C° 0 mm 2 mps 700 mmHg 82%
    08:00 +8°C° 0 mm 2 mps 700 mmHg 81%
    09:00 +10°C° 0 mm 3 mps 701 mmHg 71%
    10:00 +13°C° 0 mm 3 mps 701 mmHg 61%
    11:00 +15°C° 0 mm 4 mps 702 mmHg 52%
    12:00 +17°C° 0 mm 4 mps 701 mmHg 48%
    13:00 +18°C° 0 mm 3 mps 701 mmHg 43%
    14:00 +19°C° 0 mm 3 mps 700 mmHg 39%
    15:00 +18°C° 0 mm 3 mps 700 mmHg 40%
    16:00 +18°C° 0 mm 3 mps 699 mmHg 40%
    17:00 +18°C° 0 mm 3 mps 699 mmHg 41%
    18:00 +16°C° 0 mm 3 mps 699 mmHg 46%
    19:00 +14°C° 0 mm 2 mps 699 mmHg 52%
    20:00 +13°C° 0 mm 2 mps 698 mmHg 57%
    21:00 +12°C° 0 mm 2 mps 698 mmHg 57%
    22:00 +12°C° 0 mm 2 mps 698 mmHg 57%
    23:00 +11°C° 0 mm 3 mps 698 mmHg 56%
    Show more